Home   Weather   Baltimore   Past weeks
Flag for USA

Past Weather in Baltimore, Maryland, USA — Yesterday and Last 2 Weeks

Now
68 °F

Broken clouds.


Feels Like: 68 °F
Forecast: 73 / 60 °F
Wind: 8 mph from Northwest

Location: Baltimore-Washington International Airport

Current Time: Apr 24, 2019 at 12:22:43 pm

Latest Report: Apr 24, 2019 at 10:54 am


Visibility: 10 mi

Pressure: 29.87 "Hg

Humidity: 42%

Dew Point: 44 °F

Location of BaltimoreLocation

Past Weather in Baltimore — Graph

°F

Baltimore Temperature Yesterday

Maximum temperature yesterday: 82 °F (at 3:54 pm)
Minimum temperature yesterday: 49 °F (at 5:54 am)
Average temperature yesterday: 67 °F

High & Low Weather Summary for the Past Weeks

 TemperatureHumidityPressure
High82 °F (Apr 23, 3:54 pm)100% (Apr 13, 7:54 am)30.21 "Hg (Apr 13, 7:54 am)
Low42 °F (Apr 16, 6:54 am)18% (Apr 9, 9:54 pm)29.37 "Hg (Apr 15, 2:30 am)
Average62 °F65%29.90 "Hg
* Reported Apr 9 10:54 am — Apr 24 10:54 am, Baltimore. Weather by CustomWeather, © 2019

Note: Actual official high and low records may vary slightly from our data, if they occured in-between our weather recording intervals... More about our weather records

Advertising

Baltimore Weather History for the Previous 24 Hours

Scroll right to see more
 ConditionsComfort  
Time TempWeatherWind HumidityBarometerVisibility
10:54 am
Wed, Apr 24
68 °FBroken clouds.8 mph42%29.87 "Hg10 mi
9:54 am64 °FBroken clouds.14 mph52%29.86 "Hg10 mi
8:54 am64 °FBroken clouds.17 mph56%29.86 "Hg10 mi
7:54 am65 °FBroken clouds.20 mph59%29.83 "Hg10 mi
6:54 am67 °FPartly sunny.15 mph63%29.79 "Hg10 mi
5:54 am65 °FMostly cloudy.No wind70%29.76 "Hg10 mi
4:54 am69 °FMostly cloudy.7 mph63%29.74 "Hg10 mi
3:54 am65 °FClear.6 mph70%29.75 "Hg10 mi
2:54 am62 °FOvercast.5 mph75%29.75 "Hg10 mi
1:54 am64 °FPartly cloudy.No wind73%29.76 "Hg10 mi
12:54 am63 °FPassing clouds.3 mph75%29.77 "Hg10 mi
11:54 pm
Tue, Apr 23
63 °FPassing clouds.5 mph75%29.77 "Hg10 mi
10:54 pm67 °FPassing clouds.No wind66%29.77 "Hg10 mi
9:54 pm67 °FPartly cloudy.5 mph63%29.80 "Hg10 mi
8:54 pm70 °FPartly cloudy.3 mph55%29.81 "Hg10 mi
7:54 pm72 °FPartly cloudy.8 mph49%29.81 "Hg10 mi
6:54 pm76 °FBroken clouds.9 mph42%29.82 "Hg10 mi
5:54 pm82 °FBroken clouds.9 mph29%29.82 "Hg10 mi
4:54 pm82 °FScattered clouds.10 mph29%29.82 "Hg10 mi
3:54 pm82 °FScattered clouds.8 mph28%29.86 "Hg10 mi
2:54 pm81 °FBroken clouds.9 mph27%29.89 "Hg10 mi
1:54 pm80 °FBroken clouds.8 mph28%29.92 "Hg10 mi
12:54 pm78 °FScattered clouds.3 mph32%29.96 "Hg10 mi
Weather by CustomWeather, © 2019

See weather overview